Location: Ependes
(46.7562°N, 7.1509°E)
Time: 13:06:22
(UTC+00:00)

Daily predictions for brighter satellites

Satellite Brightness Start Highest point End
(mag) Time Altitude Azimuth Time Altitude Azimuth Time Altitude Azimuth
Cosmos 1943 3.7 18:28:18 10° S 18:33:23 36° ESE 18:38:33 10° NE
ARGOS Delta rocket 4.2 18:29:57 10° SSE 18:35:10 69° ENE 18:40:37 10° N
CSL-04 Rocket 4.3 18:31:12 10° S 18:36:25 60° WSW 18:41:39 10° NNW
Aureole 2 Rocket 2.3 18:33:29 10° NNW 18:37:00 78° ENE 18:40:23 10° SSE
BREEZE-M DEB (TANK) 2.6 18:30:44 10° SW 18:37:53 60° SSE 18:40:34 10° ENE
CZ-2C R/B 3.2 18:33:56 10° SE 18:38:39 49° ENE 18:43:15 10° N
Meteor 2-15 4.4 18:33:12 10° S 18:39:13 78° E 18:45:18 10° NNE
H-2A R/B 2.1 18:43:12 10° SSE 18:48:23 69° ENE 18:53:28 10° N
SJ-11-01 4.4 18:45:50 10° SSE 18:50:33 86° WSW 18:55:19 10° NNW
NOSS 3-4 (A) 4.3 18:45:22 10° NW 18:51:59 48° NE 18:58:54 11° ESE
NOSS 3-4 (C) 4.3 18:45:28 10° NNW 18:52:04 47° NE 18:58:59 11° ESE
Cosmos 1656 Rocket 4.0 18:48:38 10° NNW 18:54:09 50° ENE 18:59:35 10° SE
ADEOS Rocket 4.0 18:47:49 10° N 18:54:09 55° WNW 18:59:52 10° SW
SL-16 R/B 3.7 18:51:17 10° SW 18:56:36 41° NW 19:01:57 10° NNE
STARLINK-1228 4.5 18:55:19 10° NW 18:57:46 24° N 19:00:13 10° ENE
CZ-2C R/B 3.6 18:53:50 10° NE 18:58:00 24° E 19:02:08 10° SE
Resurs 1-3 4.5 18:55:40 10° SE 18:59:33 32° ENE 19:03:27 10° N
NOSS 3-3 (A) 3.9 18:55:22 10° SSW 19:01:12 80° SE 19:07:50 10° NE
NOSS 3-3 (C) 3.9 18:55:28 10° SSW 19:01:18 79° SE 19:07:56 10° NE
Cosmos 2251 Rocket 3.6 18:56:42 10° SSW 19:02:05 90° ESE 19:07:30 10° NNE
Cosmos 1726 2.2 18:58:31 10° S 19:02:10 56° E 19:05:51 10° NNE
ARGOS 3.1 18:58:47 10° SSE 19:04:10 79° ENE 19:09:34 10° NNW
MONITOR-E 3.7 19:03:21 10° SSE 19:05:58 88° ENE 19:08:38 10° NNW
Cosmos 2184 Rocket 4.0 19:00:08 10° N 19:06:26 68° E 19:12:37 10° SSE
STARLINK-60 4.4 19:04:13 10° S 19:06:46 21° SE 19:07:54 18° ESE
ISS -1.9 19:04:20 10° W 19:07:10 25° SW 19:09:59 10° SSE
SJ-6B 2.9 19:03:34 10° SSE 19:07:39 72° ENE 19:11:48 10° N
BREEZE M DEB (TANK) 4.1 19:08:01 10° SSE 19:10:25 18° ESE 19:14:36 10° ENE
Meteor 2-10 4.1 19:05:37 10° S 19:11:01 73° E 19:16:39 10° NNE
USA 186 2.1 19:09:20 10° S 19:12:42 70° W 19:15:56 10° NNW
STARLINK-67 3.9 19:10:59 10° NW 19:13:16 27° NNE 19:14:43 17° ENE
STARLINK-1234 4.4 19:13:15 10° NW 19:15:58 28° NNE 19:17:59 15° ENE
STARLINK-1209 4.3 19:16:10 10° NW 19:18:49 28° NNE 19:20:37 16° ENE
Cosmos 1603 3.8 19:13:24 10° SSW 19:19:02 83° WNW 19:24:42 10° NNE
IRIDIUM 104 4.4 19:14:11 10° N 19:19:26 83° W 19:24:38 10° S
FREGAT/IRIS 3.4 19:16:58 10° S 19:19:35 45° W 19:22:15 10° NNW
STARLINK-1235 4.4 19:16:55 10° NW 19:19:45 29° NNE 19:21:46 16° ENE
STARLINK-1187 4.4 19:17:20 10° NW 19:20:09 29° N 19:22:12 15° ENE
Cosmos 2058 Rocket 3.8 19:16:34 11° SSE 19:20:29 33° E 19:24:31 10° NNE
Ariane Rocket 3.8 19:16:28 10° S 19:21:25 54° W 19:26:24 10° NNW
STARLINK-1191 4.5 19:18:40 10° NW 19:21:27 28° N 19:23:29 15° ENE
STARLINK-1210 4.5 19:19:08 10° NW 19:21:54 28° N 19:23:55 15° ENE
STARLINK-1221 4.5 19:19:34 10° NW 19:22:22 28° N 19:24:21 15° ENE
STARLINK-1219 4.5 19:20:01 10° NW 19:22:48 28° N 19:24:47 15° ENE
MOS 1 Rocket 4.0 19:18:06 10° NNE 19:23:12 42° E 19:28:21 10° SSE
STARLINK-1222 4.5 19:20:29 10° NW 19:23:16 28° N 19:25:13 15° ENE
STARLINK-1211 4.5 19:20:56 10° NW 19:23:43 28° N 19:25:39 16° ENE
STARLINK-1214 4.5 19:21:22 10° NW 19:24:10 28° N 19:26:05 16° ENE
Resurs 01 Rocket 2.2 19:21:42 19° SE 19:24:22 39° ENE 19:28:30 10° N
ATLAS 2AS CENTAUR R/B 2.9 19:16:57 10° NW 19:24:38 70° NE 19:29:59 19° SE
STARLINK-1245 4.5 19:21:52 10° NW 19:24:38 28° N 19:26:30 16° ENE
USA 234 3.8 19:19:05 10° ENE 19:24:58 35° SE 19:30:49 10° SSW
STARLINK-1238 4.5 19:22:16 10° NW 19:25:05 28° N 19:26:57 16° ENE
STARLINK-1205 4.5 19:23:12 10° NW 19:25:59 28° N 19:27:48 17° ENE
STARLINK-1204 4.4 19:23:41 10° NW 19:26:27 28° N 19:28:14 17° ENE
Meteor 1-16 Rocket 4.1 19:23:02 10° S 19:28:25 85° E 19:34:00 10° NNE
Cosmos 2154 Rocket 4.0 19:22:20 10° N 19:28:41 65° ENE 19:34:52 10° SSE
Cosmos 1190 Rocket 4.4 19:25:12 10° S 19:30:06 39° ESE 19:35:01 10° NE
SeaSat 1 4.4 19:26:20 10° NNE 19:30:41 32° NW 19:35:01 10° WSW
Nadezhda 1 Rocket 4.0 19:25:01 10° S 19:31:19 66° E 19:37:37 10° NNE
Cosmos 1140 Rocket 4.0 19:26:49 10° SSE 19:31:28 35° ESE 19:36:08 10° NE
SL-4 R/B 1.5 19:28:33 10° SW 19:31:54 59° SSE 19:33:43 24° ENE
Cosmos 1726 Rocket 3.5 19:29:24 10° S 19:33:45 68° E 19:38:12 10° NNE
Spot 2 Rocket 4.5 19:31:32 22° ESE 19:33:46 30° ENE 19:38:10 10° N
STARLINK-1201 4.4 19:31:49 10° NW 19:34:47 31° NNE 19:36:24 20° ENE
Cosmos 1340 Rocket 3.2 19:32:48 17° SSE 19:35:31 42° E 19:39:21 10° NNE
ATLAS 5 CENTAUR R/B 2.1 19:33:30 10° S 19:37:12 32° ESE 19:41:16 10° NE
Cosmos 1825 Rocket 4.0 19:35:40 10° NNW 19:40:02 63° W 19:44:20 10° S
Cosmos 1328 3.8 19:36:04 10° N 19:40:06 85° W 19:43:15 16° S
SL-24 R/B - RUBIN 2 4.4 19:35:25 10° S 19:40:42 48° ESE 19:46:40 10° NE
Cosmos 1703 3.5 19:41:33 10° NNW 19:45:30 71° W 19:48:40 15° S
Meteor 2-17 Rocket 4.4 19:39:38 10° N 19:45:49 84° E 19:51:27 13° S
Cosmos 614 Rocket 3.9 19:43:09 10° SSW 19:48:22 78° ESE 19:53:37 10° NNE
Cosmos 1943 Rocket 4.2 19:45:32 10° NW 19:49:56 25° WSW 19:54:21 10° SSW
Cosmos 1300 3.6 19:50:48 31° ENE 19:50:48 31° ENE 19:53:47 10° NNE
SPOT 3 Rocket 3.8 19:45:41 10° S 19:50:52 69° WSW 19:56:05 10° NNW
Abrixas rocket 2.1 19:48:58 10° WNW 19:51:55 62° N 19:52:19 54° NE
Cosmos 2369 Rocket 3.8 19:47:01 10° NW 19:52:00 32° WSW 19:56:54 10° SSW
SL-24 R/B 4.2 19:49:41 10° N 19:53:53 68° WNW 19:57:39 10° SSW
COSMOS 2455 3.1 19:47:58 10° NNW 19:53:54 55° NE 19:56:39 31° ESE
CZ-2C R/B 4.1 19:51:02 10° N 19:55:45 69° WNW 20:00:21 10° SSW
Cosmos 921 Rocket 3.0 19:52:04 10° NNW 19:56:12 56° ENE 19:57:12 43° ESE
Cosmos 676 Rocket 4.3 19:56:21 29° SSE 19:58:23 42° ESE 20:03:19 10° NE
Cosmos 407 Rocket 3.3 19:54:34 10° SSW 19:59:44 81° ESE 20:04:53 10° NNE
Cosmos 2228 3.7 19:55:58 10° SSW 20:00:10 54° WNW 20:04:26 10° N
Cosmos 1953 Rocket 4.2 19:56:00 10° NNW 20:00:24 57° W 20:04:01 15° S
Cosmos 1908 3.9 19:59:33 10° SSW 20:03:20 54° WNW 20:07:10 10° N
Cosmos 1818 4.2 20:02:37 10° SW 20:07:59 58° NW 20:13:23 10° NNE
ERS-1 Rocket 3.9 20:07:39 30° E 20:08:18 31° ENE 20:12:41 10° N
ERBS 4.1 20:07:16 10° NNW 20:09:59 22° NNE 20:10:29 21° NE
Landsat 7 4.2 20:11:37 42° E 20:12:17 45° ENE 20:16:50 10° N
SPOT 1/Viking Rocket 3.9 20:14:31 41° E 20:15:28 45° ENE 20:20:26 10° N
MetOp-B 4.0 20:15:07 40° SSE 20:17:09 79° ENE 20:22:32 10° NNW
Cosmos 1461 3.0 20:14:24 10° NW 20:18:57 82° SW 20:19:51 57° SSE
Cosmos 1954 Rocket 3.9 20:21:02 39° S 20:22:52 64° ESE 20:28:03 10° NNE
SAR-Lupe-2 3.7 20:23:27 10° NNE 20:26:38 68° N 20:26:38 68° N
STARLINK-1138 4.4 20:23:32 10° WNW 20:27:30 42° NNE 20:28:06 39° NE
STARLINK-1143 4.4 20:28:30 10° WNW 20:32:29 44° NNE 20:32:52 42° NNE
CZ-4C R/B 4.2 20:27:09 10° NNW 20:32:46 27° NNE 20:37:07 17° ENE
Cosmos 1697 Rocket 4.1 20:29:55 10° N 20:34:29 24° NE 20:35:27 23° ENE
Cosmos 1076 Rocket 3.8 20:31:25 10° N 20:35:03 53° NE 20:35:03 53° NE
SPOT 5 3.5 20:36:47 36° NE 20:36:47 36° NE 20:40:07 10° N
STARLINK-1241 4.3 20:33:31 10° WNW 20:37:32 46° NNE 20:37:41 45° NNE
CZ-2C R/B 3.4 20:33:34 10° N 20:38:33 49° WNW 20:43:31 10° SW
Iridium 2 4.4 20:41:59 47° N 20:41:59 47° N 20:44:49 10° N
STARLINK-1239 4.3 20:38:29 10° WNW 20:42:27 47° NNE 20:42:27 47° NNE
NOSS 3-4 (A) 4.4 20:36:17 10° NW 20:43:05 52° WSW 20:46:22 32° S
NOSS 3-4 (C) 4.4 20:36:23 10° NW 20:43:11 52° WSW 20:46:27 32° S
Cosmos 2341 Rocket 4.3 20:37:07 10° NNW 20:43:26 65° W 20:46:40 30° SSW
Cosmos 2058 3.4 20:41:04 10° N 20:44:18 52° NNE 20:44:18 52° NNE
STARLINK-1240 4.3 20:43:29 10° WNW 20:47:15 48° N 20:47:15 48° N
Cosmos 1763 Rocket 3.8 20:44:43 10° NNW 20:49:35 50° NE 20:49:35 50° NE
STARLINK-1216 4.4 20:48:28 10° WNW 20:52:02 48° N 20:52:02 48° N
Terra 2.6 20:55:02 42° NE 20:55:02 42° NE 20:58:46 10° N
USA 32 4.4 20:51:10 10° N 20:55:38 50° NE 20:55:38 50° NE
RESURS DK-1 4.1 20:53:53 10° N 20:56:27 25° NNE 20:56:27 25° NNE
STARLINK-1237 4.5 20:53:26 10° WNW 20:56:48 47° NNW 20:56:48 47° NNW
Cosmos 2218 Rocket 4.0 20:54:47 10° NNW 21:00:59 76° W 21:02:26 54° SSW
Resurs 01 Rocket 3.6 20:59:16 18° SW 21:01:00 23° W 21:04:32 10° NW
Cosmos 192 4.4 20:56:30 10° NNW 21:01:06 76° NNW 21:01:06 76° NNW
Cosmos 1980 Rocket 3.8 20:58:21 10° N 21:02:42 22° NE 21:03:11 22° NE
Cosmos 1892 4.1 20:59:28 10° N 21:01:53 36° N 21:01:53 36° N
USA 234 3.2 21:01:49 10° NE 21:08:22 81° NNW 21:14:55 10° WSW
CARTOSAT-1 4.4 21:10:07 49° NNW 21:10:07 49° NNW 21:13:18 10° NNW
Cosmos 1656 3.8 21:05:12 10° NNW 21:10:37 62° NE 21:10:37 62° NE
Iridium 4 Rocket 3.9 21:07:24 10° N 21:10:42 46° NW 21:10:42 46° NW
SL-4 R/B 4.2 21:08:17 10° W 21:09:22 18° WNW 21:09:22 18° WNW
Spot 2 Rocket 4.5 21:11:43 37° WSW 21:12:35 40° W 21:17:24 10° NNW
ATLAS 2AS CENTAUR R/B 4.0 21:08:42 10° NW 21:15:01 31° WSW 21:17:27 25° SW
Cosmos 1825 4.5 21:15:12 10° N 21:16:32 20° N 21:16:32 20° N
ATLAS 5 CENTAUR R/B 3.0 21:17:45 10° WSW 21:21:44 37° NW 21:26:13 10° NNE
Cosmos 841 Rocket 4.2 21:20:02 10° NNW 21:24:13 48° NNE 21:24:13 48° NNE
Cosmos 2082 Rocket 4.5 21:33:30 12° NE 21:33:30 12° NE 21:34:02 10° NE
Cosmos 1570 Rocket 4.5 21:25:30 10° NNW 21:29:51 58° N 21:29:51 58° N
Mayak 1.3 21:29:54 10° NNE 21:30:34 14° NNE 21:30:34 14° NNE
COSMOS 2455 4.1 21:34:22 10° NW 21:39:32 30° WSW 21:39:49 30° WSW
Nadezhda 3 Rocket 4.1 21:43:48 71° NNE 21:43:48 71° NNE 21:49:24 10° N
COSMOS 2406 4.1 21:45:30 41° NNE 21:45:30 41° NNE 21:49:09 10° NNE
Cosmos 1833 Rocket 4.3 21:47:50 24° NE 21:47:50 24° NE 21:50:01 10° NE
ERS-1 Rocket 4.2 21:47:39 36° W 21:47:39 36° W 21:51:40 10° NNW
ATLAS CENTAUR R/B 3.8 21:46:19 10° NNW 21:47:36 18° NNW 21:47:36 18° NNW
Cosmos 2369 4.4 22:01:39 10° NNW 22:05:45 49° NNW 22:05:45 49° NNW
Cosmos 1697 Rocket 3.7 22:13:21 10° NNW 22:17:11 44° NW 22:17:11 44° NW
CZ-4C R/B 3.0 22:15:26 10° NW 22:22:18 70° NE 22:22:18 70° NE
Cosmos 1934 Rocket 4.5 22:17:23 10° NNW 22:22:23 57° NNW 22:22:23 57° NNW
Terra 4.1 22:33:54 19° WNW 22:33:54 19° WNW 22:35:56 10° NW
SL-16 R/B 3.7 22:28:22 10° NNW 22:32:21 30° NNE 22:32:21 30° NNE
Cosmos 2360 Rocket 4.2 22:35:26 10° N 22:39:23 19° NE 22:39:34 19° NE
Cosmos 2322 Rocket 3.8 22:38:17 10° NNW 22:42:09 29° NNE 22:42:09 29° NNE
Cosmos 1980 Rocket 3.5 22:41:42 10° NNW 22:44:56 36° NW 22:44:56 36° NW
USA 234 4.3 22:44:54 10° NE 22:50:57 42° NNW 22:57:00 10° W
Mayak 1.7 23:06:21 10° NNW 23:07:09 13° NNW 23:07:09 13° NNW
Cosmos 2082 Rocket 3.6 23:15:18 34° N 23:15:18 34° N 23:18:42 10° NNE
Cosmos 2344 4.3 23:08:00 10° NW 23:17:43 76° SW 23:18:38 73° SSW
Cosmos 1833 Rocket 4.4 23:29:29 28° NW 23:29:29 28° NW 23:33:39 10° N
SL-16 R/B 4.4 23:29:17 19° ENE 23:30:27 20° NE 23:34:48 10° N
Cosmos 2219 Rocket 4.3 23:35:12 10° N 23:39:15 20° NE 23:40:10 19° NE
